Location: Gad�tanya
(48.0500°N, 20.8500°E)
Time: 09:57:33
(UTC+00:00)

Cosmos 158 Rocket - Pass Details

Date: 05 July 2020
Orbit: 698 x 794 km, 74.0° (Epoch: 14 August)

Event Time Altitude Azimuth Distance (km) Brightness Sun altitude
Exits shadow 21:13:08 28° 174° (S) 1,291 4.6 -16.6°
Maximum altitude 21:15:30 57° 108° (ESE) 823 3.9 -16.7°
Drops below altitude 10° 21:20:18 10° 30° (NNE) 2,184 6.9 -17.0°
Sets 21:22:41 0° 26° (NNE) 3,116 7.9 -17.1°
